Portada
METAR-TAF:

METAR-TAF

Aeropuertos :

Valencia, España

Base Aérea de Valencia-Bétera

latitud: 39-37-26N, longitud: 0-28-26W, altitud: 127 m

Observación

El informe se hizo hace 59 minutos, a las 15:00 UTC
Viento 8 kt del este-sureste, variando entre noreste y sur-sureste
Temperatura 13°C
Humedad 47%
Presión 1006 hPa
Visibilidad 10 km o más

METAR: LEBT 241500Z AUTO 11008KT 050V150 9999 // ////// 13/02 Q1006

Hora: 16:59 (15:59 UTC)


TAF: falta

Observaciones y pronósticos meteorológicos de más de 4000 aeropuertos (mensajes METAR y TAF).

Los puntos amarillos y rojos representan las estaciones disponibles.

Ponga el ratón en el punto deseado para ver el nombre de la estación.

Haga clic para ver las observaciones y los pronósticos meteorológicos.

Para cambiar el mapa : haga clic en los botones verdes con una cruz de color negro para hacer un zoom, en el botón verde con un guión para alejar o en las flechas verdes para mapas adyacentes.


METAR-TAF: